Simultaneous Nadir Overpasses (SNOs) Predictions

Prediction of SNOs between GOES-15 and NOAA-20 Satellite Orbit:

Table of predicted SNOs for the next 14.0 days since TLE Epoch: 5/20/2023
Index Date Time (GOES-15) GOES-15 Lat,Lon NOAA-20 Lat,Lon Distance(km) Time Diff (sec)
1 05/20/2023 23:40:52 -0.05,-150.47 -0.69,-153.31 324.02 80
2 05/21/2023 23:19:29 -0.07,-150.91 0.40,-148.79 240.72 80
3 05/23/2023 11:43:59 0.04,-151.59 0.61,-154.10 285.50 80
4 05/24/2023 11:22:36 0.06,-152.03 -0.48,-149.58 278.89 80
5 05/25/2023 23:47:15 -0.03,-152.68 -0.52,-154.92 255.22 80
6 05/26/2023 23:28:31 -0.05,-153.11 0.57,-150.40 309.02 80
7 05/28/2023 11:50:22 0.02,-153.79 0.44,-155.70 217.99 80
8 05/29/2023 11:28:58 0.05,-154.22 -0.66,-151.19 345.87 80
9 05/30/2023 23:50:57 -0.01,-154.86 -0.39,-156.52 189.42 80
10 05/31/2023 23:34:53 -0.03,-155.28 0.71,-152.00 373.95 80
11 06/02/2023 11:56:43 -0.01,-155.95 0.29,-157.30 154.70 80
